Wind_Speed
3 2 3 3 3 2 1 1 3 4 4 4 5 6 7 8 9 9 10 11 11 13 14 17 20 21 21 23 25 29 30 31 33 36 37 36 36 38 38 37 43 49 51 52 52
4 3 3 4 4 3 2 3 5 5 7 7 7 8 10 10 11 11 11 12 14 17 18 19 21 21 22 24 27 29 31 32 34 37 37 38 40 40 39 40 45 48 49 50 50
4 4 3 3 3 3 2 4 7 8 8 8 8 8 9 8 10 11 13 15 18 18 19 20 20 21 25 27 29 29 32 35 35 36 36 37 40 42 43 42 48 49 49 52 54
6 4 5 5 6 6 5 5 5 5 6 6 6 7 8 10 14 16 15 16 15 17 20 21 22 24 26 29 30 30 33 34 35 36 38 39 41 42 45 48 47 51 53 54 55
8 7 7 7 8 10 10 9 9 8 9 8 9 9 10 13 15 15 14 15 17 20 22 22 24 27 28 29 29 30 33 35 37 40 43 44 46 47 45 50 50 51 53 57 59
9 9 11 11 12 13 12 11 11 10 11 11 11 11 13 15 14 14 15 18 20 23 23 23 25 28 28 28 30 33 35 38 40 44 47 46 47 52 53 54 55 56 57 57 58
13 13 15 15 16 14 13 13 12 13 13 13 15 15 15 14 14 15 17 19 23 24 24 24 27 29 30 31 32 34 37 39 42 47 47 45 44 50 52 53 54 57 59 60 61
19 18 15 16 14 15 15 15 16 17 17 17 16 15 13 13 17 20 19 22 23 25 25 26 28 30 31 32 34 36 39 43 46 46 46 45 41 50 54 53 54 57 59 61 61
15 18 19 16 15 17 17 17 18 17 17 16 15 13 17 18 20 22 22 24 26 26 25 27 29 31 32 33 34 37 40 42 43 43 42 43 41 49 51 54 58 60 59 58 55
18 18 19 20 19 19 20 18 18 18 17 17 17 18 17 21 23 24 26 29 26 25 28 28 30 31 32 34 37 39 39 40 40 39 40 45 48 51 53 53 54 53 47 45 45
22 22 22 21 22 22 22 21 20 21 22 21 18 18 21 22 24 27 30 28 26 29 28 31 31 32 32 34 36 36 36 36 38 41 42 47 51 54 54 49 42 36 38 43 46
22 23 22 22 22 24 25 25 25 24 20 23 23 25 24 25 28 30 29 28 30 31 30 31 31 32 33 32 33 32 33 35 36 41 45 48 51 52 48 38 31 38 41 41 42
26 24 26 26 25 25 28 28 27 26 24 22 26 26 27 29 29 29 31 33 34 30 31 33 33 32 31 31 29 32 33 36 38 41 47 51 51 44 33 29 33 35 38 41 43
26 27 31 31 29 29 30 30 31 33 30 28 29 30 29 31 31 32 36 36 33 31 32 34 31 30 30 29 31 33 35 37 40 43 48 53 54 34 28 30 36 37 41 41 43
32 31 33 36 36 34 34 34 34 35 36 33 34 33 35 37 40 37 35 34 34 32 33 31 29 30 30 30 31 34 36 36 41 43 47 48 45 27 28 35 37 41 42 39 41
40 40 38 39 42 40 36 38 37 36 38 38 38 37 40 41 42 41 38 38 36 34 33 30 29 30 30 29 32 35 36 37 41 44 47 46 41 25 31 33 36 39 39 40 39
46 46 47 47 48 46 41 39 40 38 37 40 42 44 44 43 40 38 37 35 34 32 30 28 28 28 28 29 32 35 37 38 42 46 49 46 36 27 31 31 33 37 43 45 45
51 49 46 48 45 44 38 38 40 38 40 42 44 45 44 36 35 35 35 32 30 30 29 28 27 28 30 31 33 36 36 38 43 46 48 42 27 25 31 32 34 38 44 46 45
39 39 37 36 36 37 36 38 38 39 40 43 41 37 31 30 34 32 30 29 29 29 29 29 28 29 31 32 33 36 36 39 42 45 49 45 24 22 33 34 35 40 43 45 44
37 37 35 32 33 33 35 34 33 31 32 33 31 30 27 27 28 29 27 28 28 28 26 27 29 27 30 32 33 34 35 39 41 45 48 47 20 25 32 36 38 42 43 45 46
35 36 31 30 29 32 31 31 31 30 31 30 27 26 25 26 25 26 26 28 28 26 26 28 28 29 31 32 32 33 33 37 38 42 44 47 18 26 30 35 39 44 45 45 50
33 33 31 33 31 29 29 30 30 28 27 30 28 24 24 24 26 26 27 29 27 26 26 28 30 31 32 31 31 31 32 34 36 40 40 44 25 27 29 33 37 44 45 46 48
34 35 34 34 33 33 32 32 29 28 29 29 29 27 26 25 28 27 28 28 27 27 29 30 31 34 31 27 30 30 31 34 34 37 36 43 30 26 27 31 38 43 46 44 46
37 34 34 36 36 37 35 32 32 30 29 28 27 26 27 27 28 29 30 30 30 30 31 31 31 32 27 29 28 31 32 33 32 36 37 32 27 18 26 30 37 42 46 42 45
40 37 35 36 39 39 37 34 36 36 34 32 30 30 30 31 31 30 31 32 33 32 33 34 32 32 28 30 30 32 28 33 31 34 36 33 24 20 24 28 34 38 42 42 41
44 42 41 42 41 43 42 38 39 39 38 36 34 34 32 33 34 33 33 34 34 33 33 35 35 34 29 32 33 29 26 31 29 30 34 34 26 21 22 25 31 35 36 40 41
46 44 43 44 44 45 45 43 42 40 40 39 37 37 37 37 36 35 34 34 35 33 34 34 34 35 32 31 32 29 27 29 27 28 31 30 30 22 19 22 27 32 32 34 39
Wind_Direction
303 346 -0 1 358 344 331 199 185 204 220 233 244 251 260 261 264 262 266 269 274 278 285 285 285 288 290 294 295 293 292 291 290 287 285 283 282 284 282 279 278 274 273 274 272
282 314 355 3 4 332 285 260 258 255 260 259 260 261 263 265 264 265 268 275 284 292 294 298 301 305 303 298 293 291 292 291 291 289 290 288 287 284 282 283 278 276 276 276 275
251 290 323 337 339 340 311 279 270 271 273 272 266 259 262 268 280 283 287 292 294 290 294 295 306 306 299 293 290 293 293 291 289 287 286 286 286 286 285 283 281 280 280 279 274
261 264 287 301 312 304 293 275 262 266 262 261 264 269 277 285 285 285 286 287 291 297 299 305 301 297 294 291 292 293 291 288 286 286 289 292 290 290 289 284 282 282 281 280 279
265 271 273 287 306 307 295 288 277 267 260 260 267 276 289 295 293 290 289 289 297 302 304 302 301 298 295 293 292 290 290 289 291 293 295 296 295 294 287 288 286 282 280 278 277
262 267 278 289 292 291 293 292 286 279 277 274 276 283 291 288 287 285 290 296 303 302 300 301 302 297 294 293 293 295 294 292 293 294 295 296 297 297 294 292 289 289 287 285 281
266 273 280 286 290 285 292 300 299 289 283 282 283 284 284 288 289 290 294 301 303 301 301 301 301 297 297 294 294 295 295 293 296 297 296 296 298 295 293 293 294 291 289 287 283
264 270 271 276 279 282 292 291 290 290 288 287 289 289 292 298 295 295 296 303 305 298 298 298 298 295 294 295 295 296 296 300 298 295 295 295 296 298 298 297 295 292 290 287 284
277 280 275 275 283 286 282 285 287 286 286 287 290 293 295 297 294 291 291 301 304 298 296 297 296 296 296 295 297 298 297 295 296 297 299 299 300 302 304 304 301 297 292 290 288
276 284 284 286 286 288 285 285 285 286 281 284 287 290 292 295 293 288 294 306 303 297 297 297 298 297 297 298 298 300 298 299 299 300 306 308 311 310 308 304 299 296 297 296 296
279 283 282 282 287 284 285 282 283 286 286 290 285 286 287 289 291 291 301 304 300 299 299 301 299 299 298 299 300 301 302 302 302 305 309 311 313 313 310 306 305 306 301 302 303
284 283 284 281 284 283 281 285 287 289 281 287 290 291 291 289 294 296 297 297 300 300 299 301 300 302 302 303 304 303 304 303 304 310 314 315 316 315 311 308 309 306 305 304 305
283 281 285 288 290 287 287 288 289 290 286 283 293 295 294 296 295 294 294 297 300 300 302 304 305 304 303 305 305 306 308 308 309 313 317 318 318 315 307 308 307 310 312 312 306
282 274 275 278 281 286 289 290 290 290 289 291 297 298 296 296 293 291 293 296 299 303 304 303 303 304 307 305 308 309 309 311 316 320 322 322 321 314 310 312 320 319 315 312 320
279 280 278 276 276 279 286 287 288 292 287 292 295 293 294 293 291 291 291 296 296 301 307 301 301 306 305 306 309 312 311 312 318 322 322 323 319 316 321 326 323 320 320 315 320
280 280 281 276 275 274 282 281 287 284 281 288 290 291 293 295 293 291 292 294 298 298 302 296 298 302 306 308 310 316 313 314 318 321 324 329 324 323 330 330 326 322 320 323 325
278 281 278 279 276 272 272 277 279 280 283 286 288 288 293 297 293 290 290 293 298 298 297 295 299 303 305 306 313 316 313 315 320 325 328 332 325 328 332 330 325 324 331 331 330
267 270 276 276 276 270 276 275 276 279 281 281 285 287 291 293 288 290 292 295 295 295 295 296 297 301 305 306 312 315 315 320 323 324 326 332 325 328 331 332 331 334 333 333 330
272 269 274 276 270 272 274 274 278 280 280 283 286 287 290 289 288 290 293 296 294 294 294 297 297 304 305 307 312 315 315 318 321 323 326 334 331 326 336 333 339 340 333 333 334
268 269 269 274 271 274 279 281 285 286 283 283 287 289 290 284 285 289 295 297 298 297 298 297 301 305 305 306 310 313 315 318 322 325 329 334 340 329 338 339 342 339 340 335 340
278 279 273 272 270 274 280 278 276 275 277 284 287 286 285 285 288 293 299 297 298 302 302 302 305 308 309 306 308 313 315 315 319 324 330 331 350 334 342 342 340 340 343 342 343
276 278 276 275 277 280 283 282 283 277 274 277 278 280 284 286 288 294 295 296 301 303 304 304 306 309 307 300 305 311 310 312 317 324 331 331 343 327 341 341 339 340 344 347 346
270 273 276 277 277 279 279 279 281 276 269 273 277 281 283 290 296 297 296 296 299 301 301 303 305 307 305 298 304 308 310 310 315 319 330 331 332 323 335 341 339 344 343 350 346
272 269 271 272 271 274 275 276 281 276 275 277 280 283 286 290 291 294 296 298 299 300 300 299 304 305 304 298 302 307 309 307 312 317 329 330 330 315 330 340 342 344 342 353 350
271 269 265 268 269 270 270 272 274 276 278 281 282 282 285 287 289 293 295 298 298 300 300 300 302 303 299 295 300 304 308 302 310 315 324 336 325 316 333 339 342 344 344 355 356
273 270 263 258 260 264 266 269 272 273 276 277 279 279 282 285 285 290 292 295 296 298 300 300 302 301 299 294 298 303 305 297 305 309 317 331 340 310 329 333 340 343 345 353 359
271 268 265 262 259 260 264 269 271 272 273 275 277 281 283 284 286 289 289 293 295 299 298 299 298 300 302 292 296 304 294 289 297 303 309 325 336 323 320 328 338 341 344 349 357
Height
5775 5774 5773 5772 5772 5772 5772 5773 5773 5775 5776 5776 5777 5778 5779 5779 5779 5780 5780 5781 5781 5781 5780 5780 5779 5778 5777 5776 5775 5774 5774 5772 5771 5770 5769 5768 5766 5763 5763 5763 5760 5755 5754 5754 5757
5775 5774 5773 5773 5772 5772 5772 5772 5773 5773 5774 5774 5775 5776 5777 5777 5777 5777 5778 5778 5778 5777 5776 5775 5774 5772 5771 5769 5768 5767 5766 5765 5764 5762 5760 5758 5756 5756 5754 5751 5747 5745 5743 5743 5742
5773 5774 5773 5772 5772 5771 5771 5771 5771 5771 5772 5772 5772 5773 5774 5775 5775 5775 5774 5774 5773 5772 5772 5770 5767 5766 5766 5764 5763 5761 5759 5756 5756 5753 5752 5750 5747 5745 5743 5743 5736 5734 5733 5729 5727
5772 5772 5772 5772 5771 5770 5770 5770 5769 5769 5769 5769 5770 5770 5771 5771 5773 5771 5770 5769 5768 5767 5766 5763 5763 5762 5761 5759 5757 5754 5752 5750 5748 5746 5743 5741 5738 5735 5731 5728 5728 5722 5719 5717 5715
5770 5770 5770 5770 5770 5769 5769 5768 5768 5767 5767 5766 5767 5767 5767 5768 5767 5766 5765 5764 5762 5761 5759 5758 5758 5756 5754 5752 5750 5748 5745 5743 5740 5737 5734 5730 5724 5723 5720 5713 5711 5709 5705 5701 5698
5768 5768 5768 5768 5767 5767 5767 5766 5766 5765 5765 5764 5764 5764 5763 5763 5762 5761 5760 5759 5757 5755 5754 5752 5751 5750 5747 5745 5743 5740 5737 5734 5731 5728 5724 5721 5713 5708 5705 5703 5699 5694 5689 5686 5683
5765 5765 5765 5765 5765 5765 5764 5764 5763 5763 5762 5761 5761 5760 5759 5759 5757 5756 5755 5754 5752 5750 5747 5745 5744 5742 5740 5738 5735 5731 5728 5725 5722 5717 5713 5710 5706 5697 5693 5688 5684 5679 5674 5669 5663
5762 5761 5761 5762 5761 5762 5761 5761 5760 5759 5759 5758 5756 5756 5754 5753 5752 5751 5749 5748 5745 5743 5740 5738 5736 5735 5733 5730 5727 5724 5721 5716 5711 5707 5703 5700 5701 5685 5678 5675 5669 5664 5657 5651 5645
5758 5759 5758 5758 5757 5757 5757 5756 5756 5755 5754 5753 5752 5751 5751 5749 5748 5745 5744 5742 5739 5737 5733 5731 5729 5727 5724 5721 5718 5715 5711 5706 5702 5695 5692 5687 5687 5676 5666 5660 5652 5644 5638 5633 5628
5754 5754 5754 5754 5753 5753 5752 5751 5751 5751 5750 5749 5748 5748 5746 5744 5741 5740 5738 5735 5732 5730 5728 5725 5722 5719 5716 5713 5710 5706 5702 5698 5691 5687 5682 5675 5669 5661 5654 5646 5639 5631 5625 5619 5616
5750 5750 5749 5749 5749 5748 5748 5747 5748 5748 5745 5744 5743 5741 5739 5737 5735 5733 5731 5728 5726 5724 5721 5718 5715 5711 5708 5705 5701 5697 5693 5689 5684 5678 5674 5665 5657 5647 5640 5632 5625 5620 5615 5610 5605
5744 5744 5744 5744 5743 5743 5743 5742 5741 5742 5742 5738 5737 5735 5733 5731 5728 5726 5724 5723 5720 5717 5713 5711 5707 5703 5699 5696 5693 5689 5685 5681 5676 5668 5661 5655 5646 5636 5627 5622 5618 5612 5606 5601 5595
5738 5738 5738 5737 5737 5736 5736 5736 5735 5734 5735 5734 5731 5729 5727 5724 5721 5719 5717 5714 5712 5709 5706 5703 5699 5695 5692 5689 5686 5681 5677 5672 5667 5660 5650 5643 5638 5627 5619 5615 5610 5604 5597 5589 5583
5732 5732 5732 5732 5733 5731 5730 5729 5728 5726 5726 5727 5725 5722 5720 5717 5715 5712 5710 5708 5705 5702 5698 5695 5692 5689 5685 5682 5679 5675 5670 5665 5658 5650 5642 5630 5623 5619 5612 5607 5600 5594 5587 5579 5569
5724 5725 5724 5724 5724 5724 5724 5722 5721 5721 5718 5720 5717 5715 5713 5711 5708 5706 5702 5700 5697 5694 5693 5689 5685 5682 5678 5675 5671 5667 5661 5656 5650 5642 5635 5626 5615 5609 5604 5598 5591 5585 5576 5567 5558
5716 5716 5716 5716 5716 5716 5715 5714 5714 5714 5711 5711 5708 5706 5705 5702 5700 5697 5694 5692 5689 5687 5684 5681 5678 5675 5671 5667 5663 5659 5654 5648 5642 5634 5627 5616 5607 5605 5597 5591 5584 5578 5569 5559 5548
5707 5708 5708 5707 5706 5706 5706 5706 5706 5706 5705 5701 5698 5696 5695 5693 5690 5688 5687 5685 5682 5679 5677 5674 5670 5667 5663 5660 5655 5651 5646 5640 5634 5626 5618 5609 5602 5597 5591 5585 5579 5571 5559 5549 5539
5698 5698 5698 5698 5698 5697 5697 5697 5696 5697 5695 5692 5689 5687 5685 5685 5682 5680 5679 5677 5674 5671 5668 5666 5664 5660 5656 5652 5649 5644 5639 5633 5625 5619 5612 5607 5597 5592 5586 5579 5571 5562 5553 5543 5533
5688 5688 5687 5687 5687 5686 5687 5686 5686 5686 5685 5682 5679 5678 5678 5677 5674 5673 5672 5670 5667 5664 5662 5658 5656 5653 5648 5645 5642 5637 5631 5626 5619 5613 5604 5599 5593 5587 5578 5573 5565 5556 5549 5538 5526
5679 5680 5681 5678 5678 5678 5678 5679 5677 5676 5674 5673 5672 5671 5670 5670 5668 5665 5664 5662 5659 5657 5654 5651 5649 5646 5642 5638 5635 5630 5625 5619 5614 5606 5597 5590 5585 5578 5573 5566 5558 5552 5542 5531 5518
5671 5671 5674 5670 5670 5670 5671 5670 5669 5669 5667 5667 5666 5664 5664 5662 5661 5659 5658 5655 5652 5650 5647 5643 5642 5641 5635 5632 5628 5624 5618 5614 5609 5603 5593 5583 5583 5574 5569 5562 5554 5546 5537 5524 5511
5663 5664 5665 5663 5663 5663 5663 5661 5661 5661 5660 5659 5658 5658 5657 5655 5654 5652 5651 5648 5646 5643 5640 5637 5634 5632 5629 5625 5621 5617 5613 5609 5604 5598 5591 5581 5580 5570 5565 5558 5550 5543 5531 5520 5508
5655 5656 5656 5656 5656 5655 5655 5654 5654 5654 5652 5652 5651 5651 5649 5648 5646 5645 5644 5641 5638 5635 5632 5630 5628 5624 5621 5620 5614 5610 5607 5603 5598 5593 5588 5577 5571 5565 5561 5555 5547 5539 5528 5519 5507
5647 5647 5648 5648 5648 5647 5646 5647 5646 5645 5645 5644 5644 5642 5641 5641 5640 5639 5636 5634 5631 5628 5625 5623 5622 5617 5615 5611 5607 5604 5601 5597 5594 5588 5582 5574 5567 5565 5558 5552 5544 5538 5527 5518 5505
5635 5638 5639 5639 5639 5637 5638 5640 5638 5637 5637 5636 5636 5634 5634 5633 5631 5630 5628 5626 5624 5622 5618 5616 5614 5611 5608 5603 5600 5598 5596 5590 5587 5582 5576 5573 5563 5559 5554 5549 5543 5537 5526 5517 5505
5624 5626 5627 5629 5629 5629 5629 5630 5628 5627 5629 5628 5628 5627 5625 5624 5623 5622 5620 5619 5617 5615 5611 5608 5605 5603 5602 5596 5593 5592 5589 5585 5582 5577 5572 5566 5562 5555 5551 5547 5541 5536 5527 5518 5506
5611 5612 5613 5617 5618 5619 5621 5618 5617 5617 5618 5618 5617 5617 5616 5615 5614 5613 5611 5610 5609 5607 5604 5600 5596 5594 5594 5590 5586 5587 5583 5579 5577 5572 5568 5563 5557 5552 5549 5544 5541 5534 5527 5519 5509